Weather History for Falls City, NE

Change the Weather History Date:

Friday, February 8, 2013

  Actual Average Record
Temperature  
Mean Temperature 33 °F -  
Max Temperature 39 °F 38 °F 67 °F (1987)
Min Temperature 27 °F 14 °F -18 °F (1971)
Degree Days  
Heating Degree Days 32    
Moisture  
Dew Point 25 °F    
Average Humidity 78    
Maximum Humidity 89    
Minimum Humidity 60    
Precipitation  
Precipitation 0.00 in - - ()
Sea Level Pressure  
Sea Level Pressure 30.30 in    
Wind  
Wind Speed 7 mph (East)    
Max Wind Speed 14 mph    
Max Gust Speed 21 mph    
Visibility 10 miles    
Events      
Averages and records for this station are not official NWS values.
T = Trace of Precipitation, MM = Missing Value Source: NWS Daily Summary

Daily Weather History Graph

Daily Weather History Graph

Search for Another Location

Airport:

Trip Planner

Search our weather history database for the weather conditions in past years. The results will help you decide how hot, cold, wet, or windy it might be!

Date:

Astronomy

Feb. 08, 2013 Rise Set
Actual Time 7:23 AM CST 5:50 PM CST
Civil Twilight 6:55 AM CST 6:18 PM CST
Nautical Twilight 6:23 AM CST 6:50 PM CST
Astronomical Twilight 5:51 AM CST 7:22 PM CST
Moon 5:52 AM CST (2/8) 4:24 PM CST (2/8)
Length of Visible Light 11h 23m
Length of Day
10h 26m
Waning Crescent, 3% of the Moon is Illuminated
Feb 8
Waning Crescent
Feb 10
New
Feb 17
First Quarter
Feb 25
Full
Mar 4
Last Quarter

Hourly Weather History & Observations

Time (CST) Temp. Windchill Dew Point Humidity Pressure Visibility Wind Dir Wind Speed Gust Speed Precip Events Conditions
12:53 AM 30.0 °F 23.2 °F 24.1 °F 79% 30.28 in 10.0 mi North 6.9 mph - N/A   Overcast
1:53 AM 30.0 °F 21.7 °F 24.1 °F 79% 30.28 in 10.0 mi North 9.2 mph - N/A   Overcast
2:53 AM 30.0 °F 22.4 °F 24.1 °F 79% 30.30 in 10.0 mi North 8.1 mph - N/A   Overcast
3:53 AM 30.0 °F 23.2 °F 23.0 °F 75% 30.30 in 10.0 mi North 6.9 mph - N/A   Overcast
4:53 AM 30.0 °F 23.2 °F 24.1 °F 79% 30.31 in 10.0 mi North 6.9 mph - N/A   Overcast
5:10 AM 30.2 °F 25.4 °F 24.8 °F 80% 30.29 in 10.0 mi North 4.6 mph - N/A   Overcast
5:53 AM 28.9 °F 21.1 °F 24.1 °F 82% 30.33 in 10.0 mi NE 8.1 mph - N/A   Overcast
6:53 AM 28.0 °F 20.8 °F 24.1 °F 85% 30.34 in 10.0 mi NE 6.9 mph - N/A   Overcast
7:34 AM 28.4 °F 22.2 °F 24.8 °F 86% 30.31 in 10.0 mi NE 5.8 mph - N/A   Overcast
7:53 AM 27.0 °F 23.0 °F 24.1 °F 89% 30.36 in 10.0 mi ENE 3.5 mph - N/A   Overcast
8:53 AM 27.0 °F 20.5 °F 23.0 °F 85% 30.37 in 10.0 mi NE 5.8 mph - N/A   Overcast
9:53 AM 28.0 °F 22.8 °F 24.1 °F 85% 30.37 in 10.0 mi East 4.6 mph - N/A   Overcast
10:53 AM 28.9 °F 23.9 °F 25.0 °F 85% 30.37 in 10.0 mi ESE 4.6 mph - N/A   Overcast
11:19 AM 30.2 °F 26.7 °F 24.8 °F 80% 30.34 in 10.0 mi SE 3.5 mph - N/A   Overcast
11:53 AM 30.0 °F 26.5 °F 25.0 °F 82% 30.38 in 10.0 mi SE 3.5 mph - N/A   Overcast
12:53 PM 33.1 °F 30.0 °F 25.0 °F 72% 30.38 in 10.0 mi Variable 3.5 mph - N/A   Mostly Cloudy
1:02 PM 32.0 °F - 24.8 °F 75% 30.35 in 10.0 mi Calm Calm - N/A   Scattered Clouds
1:15 PM 35.6 °F 32.8 °F 24.8 °F 65% 30.34 in 10.0 mi Variable 3.5 mph - N/A   Mostly Cloudy
1:29 PM 35.6 °F 29.9 °F 26.6 °F 70% 30.33 in 10.0 mi SSW 6.9 mph - N/A   Scattered Clouds
1:53 PM 37.0 °F 33.3 °F 26.1 °F 65% 30.33 in 10.0 mi ESE 4.6 mph - N/A   Clear
2:53 PM 39.0 °F 33.4 °F 27.0 °F 62% 30.28 in 10.0 mi ESE 8.1 mph - N/A   Clear
3:53 PM 39.9 °F 33.9 °F 27.0 °F 60% 30.27 in 10.0 mi ESE 9.2 mph - N/A   Clear
4:53 PM 39.9 °F 34.5 °F 28.0 °F 63% 30.25 in 10.0 mi SE 8.1 mph - N/A   Clear
5:53 PM 35.1 °F 27.9 °F 27.0 °F 72% 30.24 in 10.0 mi ESE 9.2 mph - N/A   Clear
6:53 PM 32.0 °F 25.6 °F 26.1 °F 79% 30.24 in 10.0 mi SE 6.9 mph - N/A   Clear
7:53 PM 32.0 °F 26.4 °F 25.0 °F 75% 30.24 in 10.0 mi SE 5.8 mph - N/A   Clear
8:53 PM 30.9 °F 23.5 °F 26.1 °F 82% 30.23 in 10.0 mi SE 8.1 mph - N/A   Clear
9:53 PM 28.9 °F 20.4 °F 26.1 °F 89% 30.23 in 10.0 mi SE 9.2 mph - N/A   Clear
10:45 PM 28.4 °F 18.0 °F 24.8 °F 86% 30.19 in 8.0 mi SE 12.7 mph - N/A   Partly Cloudy
10:53 PM 28.9 °F 18.2 °F 25.0 °F 85% 30.22 in 8.0 mi SE 13.8 mph 20.7 mph N/A   Mostly Cloudy
11:53 PM 28.9 °F 18.6 °F 26.1 °F 89% 30.24 in 7.0 mi SSE 12.7 mph - N/A   Mostly Cloudy